Hourly Data Report for October 04, 2013

All times are specified in Local Standard Time (LST). Add 1 hour to adjust for Daylight Saving Time where and when it is observed.

MONCTON INTL A
NEW BRUNSWICK

46°06'44.000" N
64°40'43.000" W
70.70 m
8103201
71705
YQM

Download Data

Hourly Data (October 2013)
Hourly Data Report for October 4, 2013
Temp Definition
°C
Dew Point Temp Definition
°C
Rel Hum Definition
%
Wind Dir Definition
10's deg

Wind Spd Definition
km/h
Visibility Definition
km
Stn Press Definition
kPa
Hmdx Definition


Wind Chill Definition


Weather Definition


TIME
00:00 Legend Double Dagger 10.4 5.0 69 25 17 24.1 100.51     LegendNANA
01:00 Legend Double Dagger 8.9 4.5 74 25 13 24.1 100.47     LegendNANA
02:00 Legend Double Dagger 8.1 5.2 82 23 12 24.1 100.46     Mainly Clear
03:00 Legend Double Dagger 8.5 4.9 78 24 15 24.1 100.44     LegendNANA
04:00 Legend Double Dagger 8.0 5.1 82 24 18 24.1 100.44     LegendNANA
05:00 Legend Double Dagger 6.6 4.9 89 23 17 24.1 100.47     Clear
06:00 Legend Double Dagger 6.2 4.9 91 22 18 24.1 100.48     LegendNANA
07:00 Legend Double Dagger 8.0 5.3 83 26 15 24.1 100.52     LegendNANA
08:00 Legend Double Dagger 10.2 5.6 73 27 19 24.1 100.55     Mainly Clear
09:00 Legend Double Dagger 12.9 5.9 62 27 21 24.1 100.55     LegendNANA
10:00 Legend Double Dagger 13.7 4.1 52 28 31 24.1 100.53     LegendNANA
11:00 Legend Double Dagger 14.2 2.2 44 30 33 24.1 100.49     Mainly Clear
12:00 Legend Double Dagger 15.1 2.4 42 28 28 24.1 100.46     LegendNANA
13:00 Legend Double Dagger 15.7 2.9 42 29 31 24.1 100.42     LegendNANA
14:00 Legend Double Dagger 16.7 2.4 38 29 27 24.1 100.40     Mainly Clear
15:00 Legend Double Dagger 16.3 2.8 40 31 25 24.1 100.42     LegendNANA
16:00 Legend Double Dagger 15.3 2.9 43 32 26 24.1 100.48     LegendNANA
17:00 Legend Double Dagger 14.2 3.7 49 29 15 24.1 100.55     Mainly Clear
18:00 Legend Double Dagger 11.9 3.7 57 29 10 24.1 100.59     LegendNANA
19:00 Legend Double Dagger 8.0 3.7 74 32 5 24.1 100.67     LegendNANA
20:00 Legend Double Dagger 9.9 3.9 66 30 11 24.1 100.69     Mainly Clear
21:00 Legend Double Dagger 7.0 3.4 78 33 9 24.1 100.78     LegendNANA
22:00 Legend Double Dagger 7.6 3.1 73 26 8 24.1 100.83     LegendNANA
23:00 Legend Double Dagger 7.0 2.5 73 30 14 24.1 100.82     Clear

Notes on Data Quality.

Legend

  • E = Estimated
  • M = Missing
  • NA = Not Available
  • ‡ = Partner data that is not subject to review by the National Climate Archives
Date modified: